Time,TemperatureF,DewpointF,PressureIn,WindDirection,WindDirectionDegrees,WindSpeedMPH,WindSpeedGustMPH,Humidity,HourlyPrecipIn,Conditions,Clouds,dailyrainin,SoftwareType,DateUTC
2013-03-19 00:00:00,36.4,34.8,30.27,ENE,58,4.0,5.0,94,0.00,,---,0.02,VWS V14.01,2013-03-19 07:00:00,
2013-03-19 00:05:00,36.4,34.8,30.27,NE,46,3.0,6.0,94,0.00,,---,0.00,VWS V14.01,2013-03-19 07:05:00,
2013-03-19 00:10:00,36.4,34.8,30.27,NE,56,2.0,4.0,94,0.00,,---,0.00,VWS V14.01,2013-03-19 07:10:00,
2013-03-19 00:15:00,36.3,34.7,30.27,ENE,61,3.0,5.0,94,0.00,,---,0.00,VWS V14.01,2013-03-19 07:15:00,
2013-03-19 00:21:00,36.3,34.7,30.27,ENE,73,4.0,4.0,94,0.00,,---,0.00,VWS V14.01,2013-03-19 07:21:00,
2013-03-19 00:26:00,36.2,34.6,30.27,ENE,67,3.0,4.0,94,0.00,,---,0.00,VWS V14.01,2013-03-19 07:26:00,
2013-03-19 00:31:00,36.2,34.6,30.26,ENE,65,3.0,4.0,94,0.00,,---,0.00,VWS V14.01,2013-03-19 07:31:00,
2013-03-19 00:36:00,36.0,34.4,30.26,ENE,76,3.0,3.0,94,0.00,,---,0.00,VWS V14.01,2013-03-19 07:36:00,
2013-03-19 00:41:00,35.9,34.3,30.26,ENE,76,1.0,3.0,94,0.00,,---,0.00,VWS V14.01,2013-03-19 07:41:00,
2013-03-19 00:46:00,35.9,34.3,30.26,ENE,75,2.0,3.0,94,0.00,,---,0.00,VWS V14.01,2013-03-19 07:46:00,
2013-03-19 00:52:00,35.7,34.2,30.26,East,80,3.0,4.0,94,0.00,,---,0.00,VWS V14.01,2013-03-19 07:52:00,
2013-03-19 00:57:00,35.7,34.2,30.26,ENE,75,4.0,5.0,94,0.00,,---,0.00,VWS V14.01,2013-03-19 07:57:00,
2013-03-19 01:02:00,35.7,34.4,30.26,ENE,73,3.0,4.0,95,0.00,,---,0.00,VWS V14.01,2013-03-19 08:02:00,
2013-03-19 01:07:00,35.8,34.5,30.26,ENE,66,4.0,4.0,95,0.00,,---,0.00,VWS V14.01,2013-03-19 08:07:00,
2013-03-19 01:12:00,35.8,34.5,30.25,ENE,68,3.0,4.0,95,0.00,,---,0.00,VWS V14.01,2013-03-19 08:12:00,
2013-03-19 01:17:00,35.8,34.2,30.25,ENE,67,2.0,3.0,94,0.00,,---,0.00,VWS V14.01,2013-03-19 08:17:00,
2013-03-19 01:22:00,35.8,34.2,30.25,ENE,67,1.0,3.0,94,0.00,,---,0.00,VWS V14.01,2013-03-19 08:22:00,
2013-03-19 01:27:00,35.7,34.2,30.25,ENE,69,2.0,5.0,94,0.00,,---,0.00,VWS V14.01,2013-03-19 08:27:00,
2013-03-19 01:32:00,35.6,34.0,30.25,ENE,73,4.0,4.0,94,0.00,,---,0.00,VWS V14.01,2013-03-19 08:32:00,
2013-03-19 01:37:00,35.6,34.0,30.24,ENE,69,3.0,3.0,94,0.00,,---,0.00,VWS V14.01,2013-03-19 08:37:00,
2013-03-19 01:42:00,35.6,34.0,30.24,ENE,69,3.0,3.0,94,0.00,,---,0.00,VWS V14.01,2013-03-19 08:42:00,
2013-03-19 01:47:00,35.6,34.0,30.24,ENE,57,0.0,3.0,94,0.00,,---,0.00,VWS V14.01,2013-03-19 08:47:00,
2013-03-19 01:53:00,35.5,34.0,30.24,ENE,57,0.0,0.0,94,0.00,,---,0.00,VWS V14.01,2013-03-19 08:53:00,
2013-03-19 01:58:00,35.3,33.8,30.24,ENE,57,0.0,0.0,94,0.00,,---,0.00,VWS V14.01,2013-03-19 08:58:00,
2013-03-19 02:03:00,35.2,33.7,30.24,ENE,57,4.0,5.0,94,0.00,,---,0.00,VWS V14.01,2013-03-19 09:03:00,
2013-03-19 02:08:00,35.2,33.7,30.23,ENE,58,3.0,4.0,94,0.00,,---,0.00,VWS V14.01,2013-03-19 09:08:00,
2013-03-19 02:13:00,35.2,33.9,30.23,ENE,58,4.0,5.0,95,0.00,,---,0.00,VWS V14.01,2013-03-19 09:13:00,
2013-03-19 02:18:00,35.1,33.8,30.24,NE,50,0.0,0.0,95,0.00,,---,0.00,VWS V14.01,2013-03-19 09:18:00,
2013-03-19 02:23:00,35.0,33.7,30.23,NE,50,0.0,0.0,95,0.00,,---,0.00,VWS V14.01,2013-03-19 09:23:00,
2013-03-19 02:28:00,34.9,33.6,30.23,NE,50,1.0,1.0,95,0.00,,---,0.00,VWS V14.01,2013-03-19 09:28:00,
2013-03-19 02:33:00,34.8,33.5,30.23,NE,53,3.0,4.0,95,0.00,,---,0.00,VWS V14.01,2013-03-19 09:33:00,
2013-03-19 02:38:00,34.8,33.5,30.23,NE,52,1.0,3.0,95,0.00,,---,0.00,VWS V14.01,2013-03-19 09:38:00,
2013-03-19 02:43:00,34.8,33.5,30.23,NE,52,2.0,2.0,95,0.00,,---,0.00,VWS V14.01,2013-03-19 09:43:00,
2013-03-19 02:48:00,34.7,33.4,30.23,NE,52,2.0,2.0,95,0.00,,---,0.00,VWS V14.01,2013-03-19 09:48:00,
2013-03-19 02:53:00,34.7,33.4,30.23,NE,53,0.0,0.0,95,0.00,,---,0.00,VWS V14.01,2013-03-19 09:53:00,
2013-03-19 02:59:00,34.6,33.3,30.23,NE,53,2.0,3.0,95,0.00,,---,0.00,VWS V14.01,2013-03-19 09:59:00,
2013-03-19 03:04:00,34.6,33.3,30.22,NE,55,2.0,4.0,95,0.00,,---,0.00,VWS V14.01,2013-03-19 10:04:00,
2013-03-19 03:09:00,34.6,33.3,30.22,NE,55,0.0,1.0,95,0.00,,---,0.00,VWS V14.01,2013-03-19 10:09:00,
2013-03-19 03:14:00,34.5,33.2,30.22,NE,55,1.0,2.0,95,0.00,,---,0.00,VWS V14.01,2013-03-19 10:14:00,
2013-03-19 03:19:00,34.4,33.1,30.22,NE,55,0.0,1.0,95,0.00,,---,0.00,VWS V14.01,2013-03-19 10:19:00,
2013-03-19 03:24:00,34.3,33.0,30.22,NE,55,0.0,0.0,95,0.00,,---,0.00,VWS V14.01,2013-03-19 10:24:00,
2013-03-19 03:29:00,34.3,33.0,30.22,NE,55,0.0,0.0,95,0.00,,---,0.00,VWS V14.01,2013-03-19 10:29:00,
2013-03-19 03:34:00,34.3,33.0,30.21,NE,55,0.0,0.0,95,0.00,,---,0.00,VWS V14.01,2013-03-19 10:34:00,
2013-03-19 03:39:00,34.3,33.0,30.21,NE,55,0.0,0.0,95,0.00,,---,0.00,VWS V14.01,2013-03-19 10:39:00,
2013-03-19 03:44:00,34.4,33.1,30.21,NE,55,0.0,0.0,95,0.00,,---,0.00,VWS V14.01,2013-03-19 10:44:00,
2013-03-19 03:49:00,34.3,33.0,30.21,NE,55,0.0,2.0,95,0.00,,---,0.00,VWS V14.01,2013-03-19 10:49:00,
2013-03-19 03:54:00,34.2,32.9,30.20,NE,55,0.0,0.0,95,0.00,,---,0.00,VWS V14.01,2013-03-19 10:54:00,
2013-03-19 03:59:00,34.1,32.8,30.20,NE,55,2.0,3.0,95,0.00,,---,0.00,VWS V14.01,2013-03-19 10:59:00,
2013-03-19 04:04:00,34.1,32.8,30.20,NE,55,2.0,2.0,95,0.00,,---,0.00,VWS V14.01,2013-03-19 11:04:00,
2013-03-19 04:09:00,34.2,32.9,30.19,NE,55,3.0,4.0,95,0.00,,---,0.00,VWS V14.01,2013-03-19 11:09:00,
2013-03-19 04:14:00,34.2,32.9,30.19,NE,47,3.0,4.0,95,0.00,,---,0.00,VWS V14.01,2013-03-19 11:14:00,
2013-03-19 04:19:00,34.2,32.9,30.19,NE,50,3.0,4.0,95,0.00,,---,0.00,VWS V14.01,2013-03-19 11:19:00,
2013-03-19 04:24:00,34.2,32.9,30.19,ENE,63,3.0,3.0,95,0.00,,---,0.00,VWS V14.01,2013-03-19 11:24:00,
2013-03-19 04:29:00,34.3,33.0,30.19,ENE,65,3.0,3.0,95,0.00,,---,0.00,VWS V14.01,2013-03-19 11:29:00,
2013-03-19 04:34:00,34.4,33.1,30.18,ENE,57,4.0,4.0,95,0.00,,---,0.00,VWS V14.01,2013-03-19 11:34:00,
2013-03-19 04:39:00,34.4,33.1,30.18,NNE,32,2.0,4.0,95,0.00,,---,0.00,VWS V14.01,2013-03-19 11:39:00,
2013-03-19 04:44:00,34.4,33.1,30.18,NNE,32,0.0,2.0,95,0.00,,---,0.00,VWS V14.01,2013-03-19 11:44:00,
2013-03-19 04:49:00,34.3,33.0,30.18,NE,36,2.0,2.0,95,0.00,,---,0.00,VWS V14.01,2013-03-19 11:49:00,
2013-03-19 04:54:00,34.3,33.0,30.18,NE,36,0.0,0.0,95,0.00,,---,0.00,VWS V14.01,2013-03-19 11:54:00,
2013-03-19 04:59:00,34.3,32.8,30.17,NE,36,0.0,0.0,94,0.00,,---,0.00,VWS V14.01,2013-03-19 11:59:00,
2013-03-19 05:04:00,34.2,32.7,30.17,NE,36,2.0,3.0,94,0.00,,---,0.00,VWS V14.01,2013-03-19 12:04:00,
2013-03-19 05:09:00,34.2,32.7,30.17,NE,36,2.0,3.0,94,0.00,,---,0.00,VWS V14.01,2013-03-19 12:09:00,
2013-03-19 05:14:00,34.2,32.7,30.17,NE,36,1.0,2.0,94,0.00,,---,0.00,VWS V14.01,2013-03-19 12:14:00,
2013-03-19 05:19:00,34.2,32.7,30.17,NE,36,2.0,3.0,94,0.00,,---,0.00,VWS V14.01,2013-03-19 12:19:00,
2013-03-19 05:24:00,34.3,32.8,30.16,NE,36,2.0,3.0,94,0.00,,---,0.00,VWS V14.01,2013-03-19 12:24:00,
2013-03-19 05:29:00,34.3,32.8,30.16,NNE,32,1.0,3.0,94,0.00,,---,0.00,VWS V14.01,2013-03-19 12:29:00,
2013-03-19 05:34:00,34.3,32.8,30.16,NNE,27,1.0,3.0,94,0.00,,---,0.00,VWS V14.01,2013-03-19 12:34:00,
2013-03-19 05:39:00,34.3,32.8,30.15,NE,37,3.0,4.0,94,0.00,,---,0.00,VWS V14.01,2013-03-19 12:39:00,
2013-03-19 05:44:00,34.3,32.5,30.15,NNW,331,2.0,4.0,93,0.00,,---,0.00,VWS V14.01,2013-03-19 12:44:00,
2013-03-19 05:49:00,34.5,32.7,30.15,NW,315,3.0,4.0,93,0.00,,---,0.00,VWS V14.01,2013-03-19 12:49:00,
2013-03-19 05:54:00,34.6,32.5,30.14,NNW,342,2.0,2.0,92,0.00,,---,0.00,VWS V14.01,2013-03-19 12:54:00,
2013-03-19 05:59:00,34.7,32.6,30.14,SSW,213,2.0,2.0,92,0.00,,---,0.00,VWS V14.01,2013-03-19 12:59:00,
2013-03-19 06:04:00,34.9,32.3,30.14,NE,36,3.0,5.0,90,0.00,,---,0.00,VWS V14.01,2013-03-19 13:04:00,
2013-03-19 06:09:00,35.0,32.1,30.14,NNE,20,3.0,5.0,89,0.00,,---,0.00,VWS V14.01,2013-03-19 13:09:00,
2013-03-19 06:14:00,35.3,32.1,30.13,NNE,24,0.0,1.0,88,0.00,,---,0.00,VWS V14.01,2013-03-19 13:14:00,
2013-03-19 06:19:00,35.6,32.1,30.13,NNE,26,3.0,3.0,87,0.00,,---,0.00,VWS V14.01,2013-03-19 13:19:00,
2013-03-19 06:25:00,35.9,32.1,30.13,SSW,205,2.0,5.0,86,0.00,,---,0.00,VWS V14.01,2013-03-19 13:25:00,
2013-03-19 06:30:00,35.8,32.3,30.13,SSW,205,2.0,3.0,87,0.00,,---,0.00,VWS V14.01,2013-03-19 13:30:00,
2013-03-19 06:35:00,35.7,32.2,30.12,SSW,205,0.0,0.0,87,0.00,,---,0.00,VWS V14.01,2013-03-19 13:35:00,
2013-03-19 06:40:00,35.6,32.1,30.12,SSW,205,0.0,0.0,87,0.00,,---,0.00,VWS V14.01,2013-03-19 13:40:00,
2013-03-19 06:45:00,35.5,32.0,30.12,SSW,205,0.0,0.0,87,0.00,,---,0.00,VWS V14.01,2013-03-19 13:45:00,
2013-03-19 06:50:00,35.5,32.0,30.12,SSW,205,0.0,0.0,87,0.00,,---,0.00,VWS V14.01,2013-03-19 13:50:00,
2013-03-19 06:55:00,35.4,31.9,30.12,SSW,205,2.0,2.0,87,0.00,,---,0.00,VWS V14.01,2013-03-19 13:55:00,
2013-03-19 07:01:00,35.5,32.0,30.12,SSW,205,0.0,0.0,87,0.00,,---,0.00,VWS V14.01,2013-03-19 14:01:00,
2013-03-19 07:06:00,35.5,32.0,30.12,SSW,205,0.0,0.0,87,0.00,,---,0.00,VWS V14.01,2013-03-19 14:06:00,
2013-03-19 07:11:00,35.5,32.0,30.12,SSW,204,0.0,0.0,87,0.00,,---,0.00,VWS V14.01,2013-03-19 14:11:00,
2013-03-19 07:16:00,35.4,31.9,30.12,SSW,205,2.0,2.0,87,0.00,,---,0.00,VWS V14.01,2013-03-19 14:16:00,
2013-03-19 07:21:00,35.3,31.8,30.12,SSW,205,1.0,3.0,87,0.00,,---,0.00,VWS V14.01,2013-03-19 14:21:00,
2013-03-19 07:26:00,35.2,32.0,30.12,SSW,205,3.0,3.0,88,0.00,,---,0.00,VWS V14.01,2013-03-19 14:26:00,
2013-03-19 07:31:00,35.2,32.0,30.11,SSW,202,0.0,3.0,88,0.00,,---,0.00,VWS V14.01,2013-03-19 14:31:00,
2013-03-19 07:36:00,35.1,31.9,30.11,NE,46,2.0,2.0,88,0.00,,---,0.00,VWS V14.01,2013-03-19 14:36:00,
2013-03-19 07:41:00,35.1,31.9,30.11,NE,46,0.0,0.0,88,0.00,,---,0.00,VWS V14.01,2013-03-19 14:41:00,
2013-03-19 07:46:00,35.1,31.9,30.11,ENE,65,1.0,3.0,88,0.00,,---,0.00,VWS V14.01,2013-03-19 14:46:00,
2013-03-19 07:51:00,35.2,32.0,30.11,ENE,65,0.0,0.0,88,0.00,,---,0.00,VWS V14.01,2013-03-19 14:51:00,
2013-03-19 07:56:00,35.3,32.4,30.11,ENE,65,2.0,2.0,89,0.00,,---,0.00,VWS V14.01,2013-03-19 14:56:00,
2013-03-19 08:01:00,35.3,32.4,30.11,ENE,65,0.0,0.0,89,0.00,,---,0.00,VWS V14.01,2013-03-19 15:01:00,
2013-03-19 08:06:00,35.5,32.9,30.11,ENE,65,2.0,2.0,90,0.00,,---,0.00,VWS V14.01,2013-03-19 15:06:00,
2013-03-19 08:11:00,35.5,32.9,30.11,ENE,65,0.0,0.0,90,0.00,,---,0.00,VWS V14.01,2013-03-19 15:11:00,
2013-03-19 08:16:00,35.6,33.0,30.11,ENE,65,0.0,0.0,90,0.00,,---,0.00,VWS V14.01,2013-03-19 15:16:00,
2013-03-19 08:21:00,35.7,33.1,30.10,ENE,65,0.0,0.0,90,0.00,,---,0.00,VWS V14.01,2013-03-19 15:21:00,
2013-03-19 08:26:00,35.9,33.3,30.10,ENE,65,0.0,2.0,90,0.00,,---,0.00,VWS V14.01,2013-03-19 15:26:00,
2013-03-19 08:31:00,36.1,33.5,30.10,ENE,65,0.0,0.0,90,0.00,,---,0.00,VWS V14.01,2013-03-19 15:31:00,
2013-03-19 08:36:00,36.2,33.3,30.09,ENE,65,0.0,0.0,89,0.00,,---,0.00,VWS V14.01,2013-03-19 15:36:00,
2013-03-19 08:41:00,36.4,33.5,30.10,ENE,65,0.0,0.0,89,0.00,,---,0.00,VWS V14.01,2013-03-19 15:41:00,
2013-03-19 08:46:00,36.6,33.4,30.10,ENE,65,2.0,3.0,88,0.00,,---,0.00,VWS V14.01,2013-03-19 15:46:00,
2013-03-19 08:51:00,36.8,33.6,30.10,ENE,65,1.0,2.0,88,0.00,,---,0.00,VWS V14.01,2013-03-19 15:51:00,
2013-03-19 08:56:00,36.9,33.7,30.10,ENE,65,0.0,0.0,88,0.00,,---,0.00,VWS V14.01,2013-03-19 15:56:00,
2013-03-19 09:01:00,37.1,33.9,30.10,ENE,65,0.0,1.0,88,0.00,,---,0.00,VWS V14.01,2013-03-19 16:01:00,
2013-03-19 09:06:00,37.3,33.8,30.10,ENE,65,1.0,2.0,87,0.00,,---,0.00,VWS V14.01,2013-03-19 16:06:00,
2013-03-19 09:11:00,37.5,33.7,30.10,ENE,65,0.0,1.0,86,0.00,,---,0.00,VWS V14.01,2013-03-19 16:11:00,
2013-03-19 09:16:00,37.7,33.6,30.10,ENE,65,0.0,0.0,85,0.00,,---,0.00,VWS V14.01,2013-03-19 16:16:00,
2013-03-19 09:21:00,37.8,33.4,30.09,ENE,65,0.0,0.0,84,0.00,,---,0.00,VWS V14.01,2013-03-19 16:21:00,
2013-03-19 09:26:00,38.0,33.9,30.09,ENE,65,0.0,0.0,85,0.00,,---,0.00,VWS V14.01,2013-03-19 16:26:00,
2013-03-19 09:31:00,38.2,33.8,30.09,ENE,65,1.0,1.0,84,0.00,,---,0.00,VWS V14.01,2013-03-19 16:31:00,
2013-03-19 09:36:00,38.6,34.2,30.09,ENE,65,1.0,2.0,84,0.00,,---,0.00,VWS V14.01,2013-03-19 16:36:00,
2013-03-19 09:41:00,38.9,34.2,30.09,ENE,65,0.0,0.0,83,0.00,,---,0.00,VWS V14.01,2013-03-19 16:41:00,
2013-03-19 09:46:00,39.2,34.5,30.08,ENE,65,2.0,2.0,83,0.00,,---,0.00,VWS V14.01,2013-03-19 16:46:00,
2013-03-19 09:51:00,39.5,34.5,30.09,ENE,65,0.0,0.0,82,0.00,,---,0.00,VWS V14.01,2013-03-19 16:51:00,
2013-03-19 09:56:00,39.8,35.1,30.09,ENE,65,0.0,0.0,83,0.00,,---,0.00,VWS V14.01,2013-03-19 16:56:00,
2013-03-19 10:01:00,40.0,35.3,30.08,ENE,65,0.0,2.0,83,0.00,,---,0.00,VWS V14.01,2013-03-19 17:01:00,
2013-03-19 10:06:00,40.2,35.5,30.08,ENE,65,1.0,3.0,83,0.00,,---,0.00,VWS V14.01,2013-03-19 17:06:00,
2013-03-19 10:11:00,40.5,35.5,30.08,North,9,2.0,3.0,82,0.00,,---,0.00,VWS V14.01,2013-03-19 17:11:00,
2013-03-19 10:16:00,40.6,34.9,30.08,North,9,0.0,0.0,80,0.00,,---,0.00,VWS V14.01,2013-03-19 17:16:00,
2013-03-19 10:21:00,40.8,35.1,30.08,North,9,0.0,1.0,80,0.00,,---,0.00,VWS V14.01,2013-03-19 17:21:00,
2013-03-19 10:26:00,41.2,35.5,30.08,West,261,0.0,1.0,80,0.00,,---,0.00,VWS V14.01,2013-03-19 17:26:00,
2013-03-19 10:31:00,41.7,35.4,30.08,West,261,0.0,1.0,78,0.00,,---,0.00,VWS V14.01,2013-03-19 17:31:00,
2013-03-19 10:36:00,42.2,34.9,30.08,West,261,1.0,3.0,75,0.00,,---,0.00,VWS V14.01,2013-03-19 17:36:00,
2013-03-19 10:41:00,42.7,34.3,30.07,West,261,0.0,3.0,72,0.00,,---,0.00,VWS V14.01,2013-03-19 17:41:00,
2013-03-19 10:46:00,43.2,34.5,30.07,West,261,1.0,2.0,71,0.00,,---,0.00,VWS V14.01,2013-03-19 17:46:00,
2013-03-19 10:51:00,43.7,34.9,30.07,NW,325,2.0,2.0,71,0.00,,---,0.00,VWS V14.01,2013-03-19 17:51:00,
2013-03-19 10:56:00,44.2,35.0,30.07,NW,324,3.0,4.0,70,0.00,,---,0.00,VWS V14.01,2013-03-19 17:56:00,
2013-03-19 11:01:00,44.7,35.2,30.07,West,260,1.0,5.0,69,0.00,,---,0.00,VWS V14.01,2013-03-19 18:01:00,
2013-03-19 11:06:00,45.2,35.7,30.06,NW,316,2.0,5.0,69,0.00,,---,0.00,VWS V14.01,2013-03-19 18:06:00,
2013-03-19 11:11:00,45.9,35.6,30.06,NW,316,3.0,3.0,67,0.00,,---,0.00,VWS V14.01,2013-03-19 18:11:00,
2013-03-19 11:16:00,46.5,35.0,30.05,NW,316,2.0,2.0,64,0.00,,---,0.00,VWS V14.01,2013-03-19 18:16:00,
2013-03-19 11:21:00,47.3,35.8,30.05,NW,316,2.0,3.0,64,0.00,,---,0.00,VWS V14.01,2013-03-19 18:21:00,
2013-03-19 11:26:00,48.0,35.6,30.05,NW,316,0.0,3.0,62,0.00,,---,0.00,VWS V14.01,2013-03-19 18:26:00,
2013-03-19 11:31:00,48.6,36.6,30.05,NW,315,0.0,3.0,63,0.00,,---,0.00,VWS V14.01,2013-03-19 18:31:00,
2013-03-19 11:36:00,49.1,37.5,30.05,NW,315,2.0,4.0,64,0.00,,---,0.00,VWS V14.01,2013-03-19 18:36:00,
2013-03-19 11:41:00,48.9,36.9,30.05,West,277,3.0,5.0,63,0.00,,---,0.00,VWS V14.01,2013-03-19 18:41:00,
2013-03-19 11:46:00,48.9,37.3,30.05,West,277,2.0,3.0,64,0.00,,---,0.00,VWS V14.01,2013-03-19 18:46:00,
2013-03-19 11:51:00,49.4,38.1,30.04,West,277,1.0,2.0,65,0.00,,---,0.00,VWS V14.01,2013-03-19 18:51:00,
2013-03-19 11:56:00,50.0,37.5,30.04,WSW,245,2.0,5.0,62,0.00,,---,0.00,VWS V14.01,2013-03-19 18:56:00,
2013-03-19 12:01:00,50.6,38.5,30.04,ENE,67,1.0,7.0,63,0.00,,---,0.00,VWS V14.01,2013-03-19 19:01:00,
2013-03-19 12:06:00,51.7,36.1,30.04,SSW,209,0.0,1.0,55,0.00,,---,0.00,VWS V14.01,2013-03-19 19:06:00,
2013-03-19 12:11:00,52.8,35.2,30.04,SSW,204,2.0,4.0,51,0.00,,---,0.00,VWS V14.01,2013-03-19 19:11:00,
2013-03-19 12:16:00,53.5,33.8,30.03,SSW,204,5.0,11.0,47,0.00,,---,0.00,VWS V14.01,2013-03-19 19:16:00,
2013-03-19 12:21:00,54.6,32.0,30.03,SSE,147,7.0,14.0,42,0.00,,---,0.00,VWS V14.01,2013-03-19 19:21:00,
2013-03-19 12:26:00,55.1,32.4,30.03,South,186,4.0,6.0,42,0.00,,---,0.00,VWS V14.01,2013-03-19 19:26:00,
2013-03-19 12:31:00,55.2,30.7,30.03,ESE,121,0.0,4.0,39,0.00,,---,0.00,VWS V14.01,2013-03-19 19:31:00,
2013-03-19 12:36:00,55.3,29.5,30.03,SSW,198,2.0,10.0,37,0.00,,---,0.00,VWS V14.01,2013-03-19 19:36:00,
2013-03-19 12:41:00,55.3,30.1,30.02,SE,126,6.0,10.0,38,0.00,,---,0.00,VWS V14.01,2013-03-19 19:41:00,
2013-03-19 12:46:00,55.4,28.9,30.02,SSE,165,5.0,5.0,36,0.00,,---,0.00,VWS V14.01,2013-03-19 19:46:00,
2013-03-19 12:51:00,55.5,29.0,30.01,SE,128,6.0,12.0,36,0.00,,---,0.00,VWS V14.01,2013-03-19 19:51:00,
2013-03-19 12:56:00,55.9,30.0,30.01,SE,134,6.0,6.0,37,0.00,,---,0.00,VWS V14.01,2013-03-19 19:56:00,
2013-03-19 13:01:00,56.5,29.2,30.00,East,88,7.0,11.0,35,0.00,,---,0.00,VWS V14.01,2013-03-19 20:01:00,
2013-03-19 13:06:00,56.9,30.2,30.00,South,186,5.0,14.0,36,0.00,,---,0.00,VWS V14.01,2013-03-19 20:06:00,
2013-03-19 13:11:00,56.8,28.8,30.00,SE,124,6.0,16.0,34,0.00,,---,0.00,VWS V14.01,2013-03-19 20:11:00,
2013-03-19 13:16:00,56.7,30.1,30.00,SE,144,10.0,13.0,36,0.00,,---,0.00,VWS V14.01,2013-03-19 20:16:00,
2013-03-19 13:21:00,56.6,30.0,30.00,SSE,156,6.0,8.0,36,0.00,,---,0.00,VWS V14.01,2013-03-19 20:21:00,
2013-03-19 13:26:00,56.8,29.5,29.99,SSE,164,10.0,11.0,35,0.00,,---,0.00,VWS V14.01,2013-03-19 20:26:00,
2013-03-19 13:31:00,56.8,28.8,29.99,South,175,4.0,17.0,34,0.00,,---,0.00,VWS V14.01,2013-03-19 20:31:00,
2013-03-19 13:36:00,56.5,29.2,29.99,SSE,153,8.0,11.0,35,0.00,,---,0.00,VWS V14.01,2013-03-19 20:36:00,
2013-03-19 13:41:00,56.2,28.9,29.99,SE,136,21.0,21.0,35,0.00,,---,0.00,VWS V14.01,2013-03-19 20:41:00,
2013-03-19 13:46:00,55.7,29.9,29.98,SSE,155,8.0,18.0,37,0.00,,---,0.00,VWS V14.01,2013-03-19 20:46:00,
2013-03-19 13:51:00,55.1,29.3,29.97,ESE,115,5.0,10.0,37,0.00,,---,0.00,VWS V14.01,2013-03-19 20:51:00,
2013-03-19 13:56:00,54.8,28.4,29.97,ESE,107,15.0,19.0,36,0.00,,---,0.00,VWS V14.01,2013-03-19 20:56:00,
2013-03-19 14:01:00,54.5,28.8,29.97,SSE,159,11.0,20.0,37,0.00,,---,0.00,VWS V14.01,2013-03-19 21:01:00,
2013-03-19 14:06:00,54.3,28.6,29.96,ESE,115,21.0,21.0,37,0.00,,---,0.00,VWS V14.01,2013-03-19 21:06:00,
2013-03-19 14:12:00,54.3,29.2,29.96,ESE,120,14.0,14.0,38,0.00,,---,0.00,VWS V14.01,2013-03-19 21:12:00,
2013-03-19 14:17:00,54.6,29.5,29.97,ESE,103,15.0,19.0,38,0.00,,---,0.00,VWS V14.01,2013-03-19 21:17:00,
2013-03-19 14:22:00,55.0,29.2,29.97,SSE,148,15.0,15.0,37,0.00,,---,0.00,VWS V14.01,2013-03-19 21:22:00,
2013-03-19 14:28:00,55.1,29.3,29.97,South,189,3.0,24.0,37,0.00,,---,0.00,VWS V14.01,2013-03-19 21:28:00,
2013-03-19 14:33:00,55.1,29.3,29.97,ESE,121,15.0,19.0,37,0.00,,---,0.00,VWS V14.01,2013-03-19 21:33:00,
2013-03-19 14:38:00,54.9,29.1,29.97,SE,130,2.0,8.0,37,0.00,,---,0.00,VWS V14.01,2013-03-19 21:38:00,
2013-03-19 14:43:00,54.8,29.7,29.97,SE,127,14.0,23.0,38,0.00,,---,0.00,VWS V14.01,2013-03-19 21:43:00,
2013-03-19 14:48:00,54.6,29.5,29.97,WSW,250,2.0,20.0,38,0.00,,---,0.00,VWS V14.01,2013-03-19 21:48:00,
2013-03-19 14:53:00,54.6,29.5,29.97,ENE,70,10.0,20.0,38,0.00,,---,0.00,VWS V14.01,2013-03-19 21:53:00,
2013-03-19 14:58:00,54.4,30.0,29.97,SSE,150,2.0,9.0,39,0.00,,---,0.00,VWS V14.01,2013-03-19 21:58:00,
2013-03-19 15:03:00,54.2,29.2,29.97,SE,143,12.0,12.0,38,0.00,,---,0.00,VWS V14.01,2013-03-19 22:03:00,
2013-03-19 15:08:00,54.0,29.0,29.97,SSE,167,14.0,15.0,38,0.00,,---,0.00,VWS V14.01,2013-03-19 22:08:00,
2013-03-19 15:13:00,53.7,29.4,29.97,SE,137,15.0,18.0,39,0.00,,---,0.00,VWS V14.01,2013-03-19 22:13:00,
2013-03-19 15:18:00,53.3,30.8,29.97,South,178,5.0,20.0,42,0.00,,---,0.00,VWS V14.01,2013-03-19 22:18:00,
2013-03-19 15:23:00,52.9,30.5,29.97,ESE,105,7.0,18.0,42,0.00,,---,0.00,VWS V14.01,2013-03-19 22:23:00,
2013-03-19 15:28:00,52.6,31.3,29.97,SE,146,7.0,13.0,44,0.00,,---,0.00,VWS V14.01,2013-03-19 22:28:00,
2013-03-19 15:33:00,52.4,32.8,29.97,SSE,155,8.0,13.0,47,0.00,,---,0.00,VWS V14.01,2013-03-19 22:33:00,
2013-03-19 15:38:00,52.0,34.9,29.96,SSE,162,7.0,13.0,52,0.00,,---,0.00,VWS V14.01,2013-03-19 22:38:00,
2013-03-19 15:44:00,51.5,35.0,29.96,SE,145,5.0,14.0,53,0.00,,---,0.00,VWS V14.01,2013-03-19 22:44:00,
2013-03-19 15:49:00,51.2,35.1,29.95,SSE,162,7.0,10.0,54,0.00,,---,0.00,VWS V14.01,2013-03-19 22:49:00,
2013-03-19 15:54:00,51.0,35.4,29.95,SSE,152,4.0,9.0,55,0.00,,---,0.00,VWS V14.01,2013-03-19 22:54:00,
2013-03-19 15:59:00,51.0,35.0,29.95,SE,144,17.0,21.0,54,0.00,,---,0.00,VWS V14.01,2013-03-19 22:59:00,
2013-03-19 16:04:00,51.0,35.0,29.95,SW,222,5.0,14.0,54,0.00,,---,0.00,VWS V14.01,2013-03-19 23:04:00,
2013-03-19 16:09:00,50.9,35.8,29.94,SE,143,6.0,7.0,56,0.00,,---,0.00,VWS V14.01,2013-03-19 23:09:00,
2013-03-19 16:14:00,50.8,35.2,29.94,SSW,201,11.0,17.0,55,0.00,,---,0.00,VWS V14.01,2013-03-19 23:14:00,
2013-03-19 16:19:00,50.8,34.8,29.94,SE,130,5.0,10.0,54,0.00,,---,0.00,VWS V14.01,2013-03-19 23:19:00,
2013-03-19 16:24:00,50.7,34.7,29.93,SE,134,5.0,13.0,54,0.00,,---,0.00,VWS V14.01,2013-03-19 23:24:00,
2013-03-19 16:29:00,50.6,34.6,29.93,SSW,205,6.0,13.0,54,0.00,,---,0.00,VWS V14.01,2013-03-19 23:29:00,
2013-03-19 16:34:00,50.5,35.0,29.93,SSE,152,10.0,11.0,55,0.00,,---,0.00,VWS V14.01,2013-03-19 23:34:00,
2013-03-19 16:39:00,50.4,35.3,29.93,SE,132,7.0,8.0,56,0.00,,---,0.00,VWS V14.01,2013-03-19 23:39:00,
2013-03-19 16:44:00,50.3,35.7,29.93,SSE,158,2.0,7.0,57,0.00,,---,0.00,VWS V14.01,2013-03-19 23:44:00,
2013-03-19 16:49:00,50.1,35.5,29.93,SSE,161,9.0,9.0,57,0.00,,---,0.00,VWS V14.01,2013-03-19 23:49:00,
2013-03-19 16:54:00,49.8,36.5,29.93,SSW,202,4.0,13.0,60,0.00,,---,0.00,VWS V14.01,2013-03-19 23:54:00,
2013-03-19 16:59:00,49.4,36.9,29.93,South,173,15.0,15.0,62,0.00,,---,0.00,VWS V14.01,2013-03-19 23:59:00,
2013-03-19 17:04:00,49.1,37.1,29.92,SE,144,7.0,9.0,63,0.00,,---,0.00,VWS V14.01,2013-03-20 00:04:00,
2013-03-19 17:10:00,48.8,38.0,29.92,SE,144,9.0,13.0,66,0.00,,---,0.00,VWS V14.01,2013-03-20 00:10:00,
2013-03-19 17:15:00,48.5,38.1,29.92,SE,141,13.0,13.0,67,0.00,,---,0.00,VWS V14.01,2013-03-20 00:15:00,
2013-03-19 17:20:00,48.1,38.0,29.91,SE,136,6.0,10.0,68,0.00,,---,0.00,VWS V14.01,2013-03-20 00:20:00,
2013-03-19 17:25:00,47.8,38.5,29.92,SE,128,9.0,13.0,70,0.01,,---,0.01,VWS V14.01,2013-03-20 00:25:00,
2013-03-19 17:30:00,47.5,38.6,29.91,ESE,117,8.0,11.0,71,0.01,,---,0.01,VWS V14.01,2013-03-20 00:30:00,
2013-03-19 17:35:00,47.3,39.1,29.91,ESE,117,6.0,7.0,73,0.01,,---,0.01,VWS V14.01,2013-03-20 00:35:00,
2013-03-19 17:40:00,47.1,38.9,29.91,SSE,168,4.0,5.0,73,0.01,,---,0.01,VWS V14.01,2013-03-20 00:40:00,
2013-03-19 17:45:00,46.8,38.6,29.91,SE,136,9.0,11.0,73,0.01,,---,0.01,VWS V14.01,2013-03-20 00:45:00,
2013-03-19 17:50:00,46.5,38.7,29.91,SE,127,6.0,7.0,74,0.01,,---,0.01,VWS V14.01,2013-03-20 00:50:00,
2013-03-19 17:55:00,46.1,38.6,29.91,SE,139,7.0,10.0,75,0.01,,---,0.01,VWS V14.01,2013-03-20 00:55:00,
2013-03-19 18:00:00,45.9,39.1,29.90,SE,145,7.0,12.0,77,0.02,,---,0.02,VWS V14.01,2013-03-20 01:00:00,
2013-03-19 18:06:00,45.5,39.0,29.89,ESE,117,5.0,8.0,78,0.02,,---,0.02,VWS V14.01,2013-03-20 01:06:00,
2013-03-19 18:11:00,45.1,39.0,29.89,ESE,103,1.0,15.0,79,0.02,,---,0.02,VWS V14.01,2013-03-20 01:11:00,
2013-03-19 18:16:00,44.8,39.0,29.89,ESE,117,6.0,14.0,80,0.02,,---,0.02,VWS V14.01,2013-03-20 01:16:00,
2013-03-19 18:21:00,44.6,39.5,29.88,ESE,121,5.0,5.0,82,0.03,,---,0.03,VWS V14.01,2013-03-20 01:21:00,
2013-03-19 18:26:00,44.4,39.3,29.88,ESE,105,9.0,9.0,82,0.02,,---,0.03,VWS V14.01,2013-03-20 01:26:00,
2013-03-19 18:31:00,44.2,39.1,29.88,ESE,106,5.0,12.0,82,0.02,,---,0.03,VWS V14.01,2013-03-20 01:31:00,
2013-03-19 18:36:00,44.1,39.3,29.87,SSW,194,4.0,5.0,83,0.02,,---,0.03,VWS V14.01,2013-03-20 01:36:00,
2013-03-19 18:41:00,44.0,39.2,29.86,SE,129,0.0,4.0,83,0.03,,---,0.04,VWS V14.01,2013-03-20 01:41:00,
2013-03-19 18:46:00,43.9,39.4,29.86,SW,220,2.0,2.0,84,0.03,,---,0.04,VWS V14.01,2013-03-20 01:46:00,
2013-03-19 18:51:00,43.8,39.6,29.86,ENE,67,2.0,6.0,85,0.03,,---,0.04,VWS V14.01,2013-03-20 01:51:00,
2013-03-19 18:56:00,43.7,39.8,29.85,NNE,32,1.0,4.0,86,0.03,,---,0.04,VWS V14.01,2013-03-20 01:56:00,
2013-03-19 19:01:00,43.5,39.6,29.85,ENE,78,2.0,2.0,86,0.04,,---,0.05,VWS V14.01,2013-03-20 02:01:00,
2013-03-19 19:06:00,43.4,39.5,29.85,SE,127,2.0,4.0,86,0.03,,---,0.05,VWS V14.01,2013-03-20 02:06:00,
2013-03-19 19:11:00,43.4,39.8,29.84,East,81,6.0,7.0,87,0.04,,---,0.06,VWS V14.01,2013-03-20 02:11:00,
2013-03-19 19:16:00,43.3,40.0,29.84,NE,39,3.0,3.0,88,0.04,,---,0.06,VWS V14.01,2013-03-20 02:16:00,
2013-03-19 19:21:00,43.2,39.9,29.84,East,98,1.0,5.0,88,0.04,,---,0.07,VWS V14.01,2013-03-20 02:21:00,
2013-03-19 19:26:00,43.1,39.8,29.83,ENE,70,0.0,2.0,88,0.04,,---,0.07,VWS V14.01,2013-03-20 02:26:00,
2013-03-19 19:31:00,43.1,40.1,29.83,NNE,32,5.0,7.0,89,0.05,,---,0.08,VWS V14.01,2013-03-20 02:31:00,
2013-03-19 19:36:00,43.0,40.0,29.83,NE,51,4.0,7.0,89,0.05,,---,0.08,VWS V14.01,2013-03-20 02:36:00,
2013-03-19 19:41:00,42.9,39.9,29.82,ENE,76,4.0,4.0,89,0.06,,---,0.09,VWS V14.01,2013-03-20 02:41:00,
2013-03-19 19:46:00,42.8,40.1,29.82,ESE,105,1.0,4.0,90,0.05,,---,0.09,VWS V14.01,2013-03-20 02:46:00,
2013-03-19 19:51:00,42.8,40.1,29.81,NNE,23,0.0,2.0,90,0.06,,---,0.10,VWS V14.01,2013-03-20 02:51:00,
2013-03-19 19:57:00,42.7,40.0,29.81,South,173,5.0,7.0,90,0.06,,---,0.10,VWS V14.01,2013-03-20 02:57:00,
2013-03-19 20:02:00,42.7,40.0,29.81,SE,138,2.0,7.0,90,0.05,,---,0.10,VWS V14.01,2013-03-20 03:02:00,
2013-03-19 20:07:00,42.7,40.0,29.80,SSE,153,6.0,11.0,90,0.06,,---,0.11,VWS V14.01,2013-03-20 03:07:00,
2013-03-19 20:12:00,42.6,39.9,29.80,SSW,198,1.0,1.0,90,0.05,,---,0.11,VWS V14.01,2013-03-20 03:12:00,
2013-03-19 20:17:00,42.6,39.9,29.80,SE,138,6.0,6.0,90,0.06,,---,0.12,VWS V14.01,2013-03-20 03:17:00,
2013-03-19 20:22:00,42.6,39.9,29.79,NE,40,2.0,6.0,90,0.06,,---,0.13,VWS V14.01,2013-03-20 03:22:00,
2013-03-19 20:27:00,42.6,39.9,29.79,SE,141,0.0,2.0,90,0.07,,---,0.14,VWS V14.01,2013-03-20 03:27:00,
2013-03-19 20:32:00,42.6,40.2,29.78,SE,138,4.0,7.0,91,0.06,,---,0.14,VWS V14.01,2013-03-20 03:32:00,
2013-03-19 20:37:00,42.6,39.9,29.78,NE,38,2.0,5.0,90,0.08,,---,0.16,VWS V14.01,2013-03-20 03:37:00,
2013-03-19 20:42:00,42.6,40.2,29.78,ENE,76,4.0,11.0,91,0.07,,---,0.16,VWS V14.01,2013-03-20 03:42:00,
2013-03-19 20:47:00,42.7,40.3,29.77,NE,51,3.0,6.0,91,0.09,,---,0.18,VWS V14.01,2013-03-20 03:47:00,
2013-03-19 20:52:00,42.7,40.3,29.76,NNE,26,2.0,8.0,91,0.08,,---,0.18,VWS V14.01,2013-03-20 03:52:00,
2013-03-19 20:57:00,42.6,40.2,29.76,NE,36,3.0,5.0,91,0.08,,---,0.18,VWS V14.01,2013-03-20 03:57:00,
2013-03-19 21:00:00,42.7,40.3,29.75,SSE,166,2.0,4.0,91,0.08,,---,0.18,VWS V14.01,2013-03-20 04:00:00,
2013-03-19 21:03:00,42.7,40.3,29.75,SSW,213,1.0,2.0,91,0.09,,---,0.19,VWS V14.01,2013-03-20 04:03:00,
2013-03-19 21:08:00,42.8,40.4,29.75,SE,138,0.0,7.0,91,0.08,,---,0.19,VWS V14.01,2013-03-20 04:08:00,
2013-03-19 21:13:00,42.8,40.4,29.74,SE,131,1.0,7.0,91,0.08,,---,0.19,VWS V14.01,2013-03-20 04:13:00,
2013-03-19 21:18:00,42.9,40.2,29.74,ENE,72,3.0,7.0,90,0.07,,---,0.19,VWS V14.01,2013-03-20 04:18:00,
2013-03-19 21:23:00,42.9,40.5,29.74,SSE,150,8.0,9.0,91,0.06,,---,0.19,VWS V14.01,2013-03-20 04:23:00,
2013-03-19 21:28:00,43.1,40.4,29.74,NE,42,1.0,1.0,90,0.05,,---,0.19,VWS V14.01,2013-03-20 04:28:00,
2013-03-19 21:33:00,43.2,40.5,29.73,North,9,3.0,3.0,90,0.05,,---,0.19,VWS V14.01,2013-03-20 04:33:00,
2013-03-19 21:38:00,43.3,40.6,29.73,NE,41,2.0,4.0,90,0.03,,---,0.19,VWS V14.01,2013-03-20 04:38:00,
2013-03-19 21:43:00,43.4,40.4,29.72,North,9,3.0,9.0,89,0.03,,---,0.19,VWS V14.01,2013-03-20 04:43:00,
2013-03-19 21:48:00,43.5,40.5,29.72,NNE,31,6.0,8.0,89,0.01,,---,0.19,VWS V14.01,2013-03-20 04:48:00,
2013-03-19 21:53:00,43.6,40.3,29.71,NW,321,0.0,2.0,88,0.01,,---,0.19,VWS V14.01,2013-03-20 04:53:00,
2013-03-19 21:58:00,43.6,40.3,29.71,North,5,3.0,5.0,88,0.01,,---,0.19,VWS V14.01,2013-03-20 04:58:00,
2013-03-19 22:03:00,43.6,40.3,29.70,NE,42,1.0,4.0,88,0.00,,---,0.19,VWS V14.01,2013-03-20 05:03:00,
2013-03-19 22:08:00,43.7,40.4,29.70,NNW,328,4.0,4.0,88,0.00,,---,0.19,VWS V14.01,2013-03-20 05:08:00,
2013-03-19 22:13:00,43.7,40.4,29.69,NE,46,3.0,5.0,88,0.00,,---,0.19,VWS V14.01,2013-03-20 05:13:00,
2013-03-19 22:18:00,43.8,40.5,29.69,NNE,18,4.0,4.0,88,0.00,,---,0.19,VWS V14.01,2013-03-20 05:18:00,
2013-03-19 22:23:00,43.7,40.1,29.69,ESE,110,4.0,5.0,87,0.01,,---,0.20,VWS V14.01,2013-03-20 05:23:00,
2013-03-19 22:28:00,43.7,40.4,29.69,ESE,109,1.0,5.0,88,0.01,,---,0.20,VWS V14.01,2013-03-20 05:28:00,
2013-03-19 22:33:00,43.8,40.5,29.68,ENE,69,0.0,1.0,88,0.02,,---,0.21,VWS V14.01,2013-03-20 05:33:00,
2013-03-19 22:38:00,43.8,40.8,29.68,ENE,64,2.0,3.0,89,0.02,,---,0.21,VWS V14.01,2013-03-20 05:38:00,
2013-03-19 22:43:00,43.8,40.8,29.68,ENE,72,3.0,3.0,89,0.02,,---,0.21,VWS V14.01,2013-03-20 05:43:00,
2013-03-19 22:48:00,43.8,41.1,29.67,ENE,71,6.0,6.0,90,0.02,,---,0.21,VWS V14.01,2013-03-20 05:48:00,
2013-03-19 22:53:00,43.8,41.1,29.67,ENE,69,3.0,6.0,90,0.02,,---,0.21,VWS V14.01,2013-03-20 05:53:00,
2013-03-19 22:58:00,43.8,41.3,29.67,ENE,68,2.0,4.0,91,0.03,,---,0.22,VWS V14.01,2013-03-20 05:58:00,
2013-03-19 23:03:00,43.8,41.3,29.66,ENE,63,4.0,5.0,91,0.03,,---,0.22,VWS V14.01,2013-03-20 06:03:00,
2013-03-19 23:08:00,43.8,41.3,29.67,ENE,64,3.0,4.0,91,0.03,,---,0.22,VWS V14.01,2013-03-20 06:08:00,
2013-03-19 23:13:00,43.9,41.5,29.66,ENE,67,3.0,4.0,91,0.03,,---,0.22,VWS V14.01,2013-03-20 06:13:00,
2013-03-19 23:18:00,44.0,41.5,29.66,ENE,71,3.0,4.0,91,0.04,,---,0.23,VWS V14.01,2013-03-20 06:18:00,
2013-03-19 23:23:00,44.1,41.7,29.66,ENE,71,2.0,3.0,91,0.04,,---,0.23,VWS V14.01,2013-03-20 06:23:00,
2013-03-19 23:28:00,44.2,42.0,29.66,NE,56,1.0,3.0,92,0.04,,---,0.24,VWS V14.01,2013-03-20 06:28:00,
2013-03-19 23:33:00,44.2,42.0,29.65,NE,53,3.0,4.0,92,0.03,,---,0.24,VWS V14.01,2013-03-20 06:33:00,
2013-03-19 23:38:00,44.2,42.0,29.65,ENE,58,4.0,5.0,92,0.03,,---,0.24,VWS V14.01,2013-03-20 06:38:00,
2013-03-19 23:43:00,44.3,42.1,29.65,East,80,2.0,3.0,92,0.03,,---,0.24,VWS V14.01,2013-03-20 06:43:00,
2013-03-19 23:48:00,44.4,42.2,29.65,NE,51,4.0,5.0,92,0.04,,---,0.25,VWS V14.01,2013-03-20 06:48:00,
2013-03-19 23:53:00,44.5,42.6,29.64,ENE,69,4.0,4.0,93,0.04,,---,0.25,VWS V14.01,2013-03-20 06:53:00,
2013-03-19 23:58:00,44.5,42.6,29.64,ENE,66,2.0,3.0,93,0.04,,---,0.26,VWS V14.01,2013-03-20 06:58:00,